THORAD AGENA D DEB, 4737

Orbit data source: Space-Track

THORAD AGENA D DEB, 4737 is space debris in SSO originally from a launch on Wed, 08 Apr 1970 UTC launched from the Air Force Western Test Range (AFWTR). Debris objects in space refer to the collection of defunct objects orbiting the Earth. Examples of debris include non-operational satellites, rocket bodies, and fragments generated from explosions, collisions, or faulty payload assembly.

Loading next visibility...
Identifier
4737, 1970-025CL
Orbit
SSO
Country
Flag of USUS
Related business
Manufacturer
Unknown
Mission
Spacecraft
Bus & Motor
Unknown
Mass
Unknown
Launch date (UTC)
1970-04-08 (56 years ago)
Launch vehicle
Unknown
Launch site
Air Force Western Test Range (AFWTR)
Object type
Payload
Rocket body
Debris
Shape & HBR
Unknown shape, 0.2 m
Radar Cross Section
Medium (>0.1 m² and <1 m²)

Expand to show TLE details & history
Last TLE update: 12 hours ago

TLE from 12 hours ago
0 THORAD AGENA D DEB
1 04737U 70025CL  26208.40682262  .00003790  00000-0  13987-2 0  9992
2 04737  99.0522 200.4273 0024894 335.4614  24.5382 14.32937444853361
Epoch: 2026-07-27T09:45Z
TLE epoch observation values (Epoch: 2026-07-27T09:45:49.474Z)
Latitude
-0.00002°
Longitude
108.88031°
Altitude
768.64 km
Speed
7.478 km/s
True Right ascension
13h 21m 42s
True Declination
0° 00' 00"
Sunlit
Object was in daylight at epoch
Visualization orbit readout
Latitude
Unknown
Longitude
Unknown
Altitude
Unknown
Speed
Unknown
Apparent Right ascension
Unknown
Apparent Declination
Unknown
Sunlit
N/A
Visualization observer readout
Local Sidereal Time
11:24:18
Azimuth
Unknown
Elevation
Unknown
Doppler factor
Unknown
Orbital elements
Apogee altitude
796.904 km
Perigee altitude
761.27 km
Semi-major axis
7,157.224 km
Eccentricity
0.00249
Inclination
99.0522°
RAAN
200.4273°
Arg. of periapsis
335.4614°
True anomaly
24.65701°
Mean anomaly
24.5382°
Eccentric anomaly
24.59757°
Mean motion
3.58448 °/min
Orbital period
100.43 mins
BSTAR
0.0013987
Loading maneuver chart data...
Computing Atmospheric mass density...

Documentation

Showing up to 5 results
|